Weather History for Duluth, MN

Change the Weather History Date:

Wednesday, October 15, 2014

  Actual Average Record
Temperature  
Mean Temperature 45 °F 44 °F  
Max Temperature 58 °F 52 °F 82 °F (1929)
Min Temperature 32 °F 35 °F 21 °F (1952)
Degree Days  
Heating Degree Days 20 21  
Month to date heating degree days 300 280  
Since 1 July heating degree days 604 727  
Cooling Degree Days 0 0  
Month to date cooling degree days 0 0  
Year to date cooling degree days 179 204  
Moisture  
Dew Point 36 °F    
Average Humidity 66    
Maximum Humidity 92    
Minimum Humidity 40    
Precipitation  
Precipitation 0.00 in 0.09 in 1.34 in (1933)
Month to date precipitation 1.03 1.55  
Year to date precipitation 27.62 26.36  
Snow  
Snow 0.00 in 0.00 in 7.90 in (1966)
Month to date snowfall T 0.5  
Since 1 July snowfall T 0.6  
Since 1 September snowfall T 0.6  
Snow Depth 0.00 in    
Sea Level Pressure  
Sea Level Pressure 30.01 in    
Wind  
Wind Speed 6 mph (East)    
Max Wind Speed 15 mph    
Max Gust Speed 18 mph    
Visibility 10 miles    
Events      
T = Trace of Precipitation, MM = Missing Value Source: NWS Daily Summary

Daily Weather History Graph

Daily Weather History Graph

Search for Another Location

Airport:

Trip Planner

Search our weather history database for the weather conditions in past years. The results will help you decide how hot, cold, wet, or windy it might be!

Date:

Astronomy

Oct. 15, 2014 Rise Set
Actual Time 7:26 AM CDT 6:21 PM CDT
Civil Twilight 6:56 AM CDT 6:52 PM CDT
Nautical Twilight 6:20 AM CDT 7:27 PM CDT
Astronomical Twilight 5:45 AM CDT 8:02 PM CDT
Moon No Moon Rise 2:17 PM CDT (10/15)
Length of Visible Light 11h 56m
Length of Day
10h 54m
Waning Gibbous, 51% of the Moon is Illuminated
Oct 15
Waning Gibbous
Oct 15
Last Quarter
Oct 23
New
Oct 30
First Quarter
Nov 6
Full

Hourly Weather History & Observations

Time (CDT) Temp. Windchill Dew Point Humidity Pressure Visibility Wind Dir Wind Speed Gust Speed Precip Events Conditions
12:55 AM 37.9 °F 35.5 °F 34.0 °F 86% 30.02 in 10.0 mi SE 3.5 mph - N/A   Clear
1:55 AM 39.9 °F 34.5 °F 36.0 °F 86% 30.01 in 10.0 mi North 8.1 mph - N/A   Clear
2:55 AM 39.9 °F 36.7 °F 36.0 °F 86% 30.03 in 10.0 mi North 4.6 mph - N/A   Clear
3:55 AM 39.9 °F 36.7 °F 35.1 °F 83% 30.03 in 10.0 mi North 4.6 mph - N/A   Clear
4:55 AM 35.1 °F - 33.1 °F 92% 30.04 in 10.0 mi Calm Calm - N/A   Clear
5:55 AM 36.0 °F 33.3 °F 32.0 °F 86% 30.05 in 10.0 mi NNE 3.5 mph - N/A   Clear
6:55 AM 33.1 °F 28.7 °F 30.0 °F 89% 30.07 in 10.0 mi NNW 4.6 mph - N/A   Clear
7:55 AM 34.0 °F 29.8 °F 30.9 °F 89% 30.07 in 10.0 mi ENE 4.6 mph - N/A   Clear
8:55 AM 44.1 °F - 37.9 °F 79% 30.06 in 10.0 mi Calm Calm - N/A   Clear
9:55 AM 52.0 °F - 39.0 °F 61% 30.06 in 10.0 mi East 9.2 mph - N/A   Clear
10:55 AM 54.0 °F - 37.0 °F 53% 30.06 in 10.0 mi East 10.4 mph - N/A   Clear
11:55 AM 55.9 °F - 37.9 °F 51% 30.05 in 10.0 mi East 6.9 mph - N/A   Clear
12:55 PM 55.9 °F - 37.9 °F 51% 30.04 in 10.0 mi East 11.5 mph - N/A   Clear
1:55 PM 55.4 °F - 37.4 °F 51% 29.98 in 10.0 mi East 10.4 mph - N/A   Clear
2:55 PM 57.9 °F - 34.0 °F 41% 30.00 in 10.0 mi ESE 9.2 mph - N/A   Clear
3:55 PM 55.9 °F - 35.1 °F 45% 29.99 in 10.0 mi ESE 8.1 mph - N/A   Clear
4:55 PM 55.0 °F - 34.0 °F 45% 29.98 in 10.0 mi ESE 8.1 mph - N/A   Clear
5:55 PM 51.1 °F - 35.1 °F 54% 29.97 in 10.0 mi ESE 6.9 mph - N/A   Clear
6:55 PM 46.0 °F 41.9 °F 37.0 °F 71% 29.97 in 10.0 mi ESE 8.1 mph - N/A   Clear
7:55 PM 44.1 °F 41.5 °F 37.0 °F 76% 29.99 in 10.0 mi ESE 4.6 mph - N/A   Clear
8:55 PM 42.1 °F 37.7 °F 36.0 °F 79% 29.97 in 10.0 mi East 6.9 mph - N/A   Clear
9:55 PM 39.9 °F 36.7 °F 36.0 °F 86% 29.96 in 10.0 mi East 4.6 mph - N/A   Clear
10:55 PM 41.0 °F 39.0 °F 37.9 °F 89% 29.94 in 10.0 mi ENE 3.5 mph - N/A   Clear
11:53 PM 41.0 °F 39.0 °F 37.4 °F 87% 29.88 in 10.0 mi East 3.5 mph - N/A   Scattered Clouds
11:55 PM 41.0 °F - 37.9 °F 89% 29.91 in 1.0 mi Calm Calm - N/A   Scattered Clouds